| time (UTC) | temp F | wind direction | speed knots | gust knots | rain 1hr in | rain 24hr in | rain mn in | humidity % | barometer mb |
| 20260504181026 | 80 | 239 | 6.1 | 13.9 | 0.00 | 0.00 | 0.00 | 19 | 1014.9 |
| 20260504180522 | 81 | 318 | 5.2 | 12.2 | 0.00 | 0.00 | 0.00 | 20 | 1015.0 |
| 20260504180030 | 80 | 277 | 4.3 | 10.4 | 0.00 | 0.00 | 0.00 | 21 | 1015.0 |
| 20260504175513 | 80 | 280 | 3.5 | 10.4 | 0.00 | 0.00 | 0.00 | 22 | 1014.9 |
| 20260504175028 | 80 | 231 | 5.2 | 9.6 | 0.00 | 0.00 | 0.00 | 21 | 1015.0 |
| 20260504174528 | 79 | 159 | 1.7 | 5.2 | 0.00 | 0.00 | 0.00 | 24 | 1015.0 |
| 20260504174024 | 80 | 187 | 2.6 | 5.2 | 0.00 | 0.00 | 0.00 | 23 | 1015.0 |
| 20260504173520 | 78 | 104 | 2.6 | 5.2 | 0.00 | 0.00 | 0.00 | 24 | 1015.0 |
| 20260504173016 | 79 | 148 | 0.9 | 7.0 | 0.00 | 0.00 | 0.00 | 24 | 1015.0 |
| 20260504172532 | 78 | 140 | 0.9 | 7.8 | 0.00 | 0.00 | 0.00 | 24 | 1015.0 |
| 20260504172027 | 78 | 98 | 3.5 | 9.6 | 0.00 | 0.00 | 0.00 | 25 | 1014.9 |
| 20260504171523 | 78 | 155 | 4.3 | 12.2 | 0.00 | 0.00 | 0.00 | 25 | 1015.0 |
| 20260504171023 | 77 | 105 | 6.1 | 12.2 | 0.00 | 0.00 | 0.00 | 25 | 1015.0 |
| 20260504170519 | 77 | 123 | 3.5 | 9.6 | 0.00 | 0.00 | 0.00 | 26 | 1015.0 |
| 20260504151012 | 74 | 141 | 2.6 | 7.8 | 0.00 | 0.00 | 0.00 | 32 | 1014.8 |
| 20260504150528 | 74 | 176 | 2.6 | 8.7 | 0.00 | 0.00 | 0.00 | 33 | 1015.0 |
| 20260504141026 | 72 | 102 | 1.7 | 4.3 | 0.00 | 0.00 | 0.00 | 33 | 1015.0 |
| 20260504140522 | 72 | 113 | 0.9 | 2.6 | 0.00 | 0.00 | 0.00 | 34 | 1014.8 |
| 20260504130513 | 71 | 140 | 1.7 | 7.8 | 0.00 | 0.00 | 0.00 | 34 | 1014.1 |
| 20260504110525 | 72 | 206 | 1.7 | 5.2 | 0.00 | 0.00 | 0.00 | 32 | 1013.5 |
| 20260504100528 | 73 | 206 | 2.6 | 11.3 | 0.00 | 0.00 | 0.00 | 32 | 1013.5 |
| 20260504081522 | 72 | 159 | 0.0 | 2.6 | 0.00 | 0.00 | 0.00 | 33 | 1013.2 |
| 20260504081022 | 72 | 159 | 0.9 | 2.6 | 0.00 | 0.00 | 0.00 | 33 | 1013.1 |
| 20260504080518 | 72 | 149 | 0.0 | 2.6 | 0.00 | 0.00 | 0.00 | 33 | 1013.1 |
| 20260504050521 | 76 | 238 | 3.5 | 10.4 | 0.00 | 0.00 | 0.00 | 27 | 1014.0 |
| 20260504045530 | 76 | 227 | 2.6 | 9.6 | 0.00 | 0.00 | 0.00 | 27 | 1014.0 |
| 20260504045026 | 76 | 235 | 2.6 | 9.6 | 0.00 | 0.00 | 0.00 | 26 | 1013.8 |
| 20260504044521 | 76 | 215 | 5.2 | 9.6 | 0.00 | 0.00 | 0.00 | 27 | 1013.9 |
| 20260504044017 | 76 | 213 | 1.7 | 5.2 | 0.00 | 0.00 | 0.00 | 27 | 1014.0 |
| 20260504043517 | 76 | 239 | 0.9 | 5.2 | 0.00 | 0.00 | 0.00 | 26 | 1014.0 |
| 20260504043013 | 76 | 230 | 0.0 | 2.6 | 0.00 | 0.00 | 0.00 | 26 | 1014.0 |
| 20260504042528 | 76 | 229 | 0.9 | 4.3 | 0.00 | 0.00 | 0.00 | 26 | 1013.9 |
| 20260504042024 | 76 | 131 | 1.7 | 6.1 | 0.00 | 0.00 | 0.00 | 26 | 1013.8 |
| 20260504041520 | 77 | 229 | 0.9 | 9.6 | 0.00 | 0.00 | 0.00 | 25 | 1013.9 |
| 20260504041016 | 77 | 221 | 0.9 | 9.6 | 0.00 | 0.00 | 0.00 | 25 | 1013.9 |
| 20260504040512 | 77 | 221 | 3.5 | 7.8 | 0.00 | 0.00 | 0.00 | 25 | 1014.0 |
| 20260504040040 | 77 | 227 | 1.7 | 9.6 | 0.00 | 0.00 | 0.00 | 24 | 1013.8 |
| 20260504035525 | 77 | 210 | 2.6 | 9.6 | 0.00 | 0.00 | 0.00 | 24 | 1013.5 |
| 20260504035022 | 77 | 208 | 3.5 | 9.6 | 0.00 | 0.00 | 0.00 | 24 | 1013.2 |
| 20260504034518 | 77 | 217 | 3.5 | 12.2 | 0.00 | 0.00 | 0.00 | 23 | 1013.1 |
| 20260504034012 | 78 | 217 | 6.1 | 13.9 | 0.00 | 0.00 | 0.00 | 23 | 1013.1 |
| 20260504033528 | 78 | 238 | 5.2 | 13.0 | 0.00 | 0.00 | 0.00 | 22 | 1013.0 |
| 20260504033025 | 78 | 262 | 6.1 | 15.6 | 0.00 | 0.00 | 0.00 | 22 | 1012.8 |
| 20260504032521 | 78 | 190 | 7.0 | 22.6 | 0.00 | 0.00 | 0.00 | 21 | 1012.8 |
| 20260504032020 | 78 | 211 | 5.2 | 22.6 | 0.00 | 0.00 | 0.00 | 21 | 1012.8 |
| 20260504031516 | 79 | 210 | 8.7 | 19.1 | 0.00 | 0.00 | 0.00 | 20 | 1012.7 |
| 20260504031011 | 79 | 26 | 8.7 | 17.4 | 0.00 | 0.00 | 0.00 | 20 | 1012.5 |
| 20260504030527 | 79 | 286 | 6.1 | 19.1 | 0.00 | 0.00 | 0.00 | 19 | 1012.3 |
| 20260504030035 | 79 | 266 | 7.0 | 17.4 | 0.00 | 0.00 | 0.00 | 19 | 1012.1 |
| 20260504025516 | 80 | 217 | 7.8 | 17.4 | 0.00 | 0.00 | 0.00 | 18 | 1012.1 |
| 20260504025012 | 80 | 221 | 6.1 | 16.5 | 0.00 | 0.00 | 0.00 | 18 | 1011.7 |
| 20260504024512 | 80 | 196 | 6.1 | 13.0 | 0.00 | 0.00 | 0.00 | 17 | 1011.7 |
| 20260504024027 | 80 | 217 | 7.8 | 13.0 | 0.00 | 0.00 | 0.00 | 17 | 1011.7 |
| 20260504023523 | 81 | 200 | 6.1 | 15.6 | 0.00 | 0.00 | 0.00 | 16 | 1011.6 |
| 20260504023019 | 81 | 219 | 6.1 | 15.6 | 0.00 | 0.00 | 0.00 | 16 | 1011.5 |
| 20260504022515 | 81 | 216 | 5.2 | 13.0 | 0.00 | 0.00 | 0.00 | 16 | 1011.4 |
| 20260504022031 | 81 | 243 | 5.2 | 13.0 | 0.00 | 0.00 | 0.00 | 16 | 1011.4 |
| 20260504021526 | 81 | 224 | 7.8 | 17.4 | 0.00 | 0.00 | 0.00 | 16 | 1011.3 |
| 20260504021026 | 82 | 250 | 6.1 | 17.4 | 0.00 | 0.00 | 0.00 | 15 | 1011.2 |
| 20260504020522 | 82 | 225 | 6.1 | 15.6 | 0.00 | 0.00 | 0.00 | 15 | 1011.2 |
| 20260504020029 | 82 | 226 | 6.1 | 17.4 | 0.00 | 0.00 | 0.00 | 15 | 1010.9 |
| 20260504015530 | 82 | 227 | 6.1 | 17.4 | 0.00 | 0.00 | 0.00 | 14 | 1011.1 |
| 20260504015026 | 83 | 213 | 5.2 | 16.5 | 0.00 | 0.00 | 0.00 | 14 | 1010.9 |
| 20260504014522 | 83 | 236 | 7.8 | 17.4 | 0.00 | 0.00 | 0.00 | 14 | 1010.8 |
| 20260504014017 | 83 | 225 | 9.6 | 17.4 | 0.00 | 0.00 | 0.00 | 13 | 1010.8 |
| 20260504013517 | 83 | 257 | 8.7 | 17.4 | 0.00 | 0.00 | 0.00 | 13 | 1010.9 |
| 20260504013032 | 84 | 229 | 9.6 | 17.4 | 0.00 | 0.00 | 0.00 | 13 | 1010.8 |
| 20260504012528 | 84 | 266 | 7.0 | 14.8 | 0.00 | 0.00 | 0.00 | 13 | 1010.8 |
| 20260504012023 | 84 | 191 | 8.7 | 14.8 | 0.00 | 0.00 | 0.00 | 12 | 1010.7 |
| 20260504011519 | 85 | 208 | 8.7 | 16.5 | 0.00 | 0.00 | 0.00 | 12 | 1010.7 |
| 20260504011016 | 85 | 186 | 7.8 | 16.5 | 0.00 | 0.00 | 0.00 | 12 | 1010.6 |
| 20260504010532 | 86 | 203 | 8.7 | 13.9 | 0.00 | 0.00 | 0.00 | 12 | 1010.9 |
| 20260504010039 | 86 | 234 | 4.3 | 12.2 | 0.00 | 0.00 | 0.00 | 11 | 1010.9 |
| 20260504005525 | 87 | 238 | 7.0 | 13.0 | 0.00 | 0.00 | 0.00 | 11 | 1011.0 |
| 20260504005021 | 87 | 208 | 6.1 | 13.9 | 0.00 | 0.00 | 0.00 | 11 | 1011.0 |
| 20260504004518 | 87 | 220 | 7.8 | 13.9 | 0.00 | 0.00 | 0.00 | 11 | 1011.1 |
| 20260504004013 | 87 | 208 | 8.7 | 13.9 | 0.00 | 0.00 | 0.00 | 11 | 1011.1 |
| 20260504003529 | 87 | 198 | 4.3 | 19.1 | 0.00 | 0.00 | 0.00 | 11 | 1011.1 |
| 20260504003025 | 87 | 219 | 6.1 | 19.1 | 0.00 | 0.00 | 0.00 | 11 | 1011.0 |
| 20260504002521 | 87 | 205 | 6.1 | 15.6 | 0.00 | 0.00 | 0.00 | 10 | 1010.9 |
| 20260504002021 | 88 | 206 | 6.1 | 15.6 | 0.00 | 0.00 | 0.00 | 11 | 1010.9 |
| 20260504001517 | 88 | 273 | 7.0 | 15.6 | 0.00 | 0.00 | 0.00 | 10 | 1010.9 |
| 20260504001013 | 88 | 183 | 7.0 | 19.1 | 0.00 | 0.00 | 0.00 | 10 | 1011.0 |
| 20260504000529 | 88 | 213 | 7.8 | 19.1 | 0.00 | 0.00 | 0.00 | 10 | 1010.7 |
| 20260504000037 | 88 | 235 | 10.4 | 17.4 | 0.00 | 0.00 | 0.00 | 10 | 1010.8 |
| 20260503235518 | 89 | 223 | 6.1 | 16.5 | 0.00 | 0.00 | 0.00 | 10 | 1010.8 |
| 20260503235014 | 89 | 255 | 7.0 | 17.4 | 0.00 | 0.00 | 0.00 | 10 | 1010.8 |
| 20260503234514 | 89 | 267 | 7.0 | 17.4 | 0.00 | 0.00 | 0.00 | 10 | 1010.9 |
| 20260503234029 | 89 | 204 | 7.0 | 13.9 | 0.00 | 0.00 | 0.00 | 10 | 1010.8 |
| 20260503233525 | 90 | 215 | 7.0 | 15.6 | 0.00 | 0.00 | 0.00 | 10 | 1010.5 |
| 20260503233021 | 90 | 233 | 6.1 | 15.6 | 0.00 | 0.00 | 0.00 | 10 | 1010.5 |
| 20260503232517 | 89 | 272 | 8.7 | 16.5 | 0.00 | 0.00 | 0.00 | 10 | 1010.4 |
| 20260503232033 | 90 | 281 | 7.8 | 17.4 | 0.00 | 0.00 | 0.00 | 10 | 1010.5 |
| 20260503231528 | 90 | 258 | 7.8 | 21.7 | 0.00 | 0.00 | 0.00 | 10 | 1010.6 |
| 20260503231028 | 91 | 215 | 9.6 | 18.2 | 0.00 | 0.00 | 0.00 | 11 | 1010.4 |
| 20260503230524 | 91 | 260 | 6.1 | 14.8 | 0.00 | 0.00 | 0.00 | 11 | 1010.4 |
| 20260503230031 | 91 | 223 | 7.0 | 13.9 | 0.00 | 0.00 | 0.00 | 11 | 1010.4 |
| 20260503225533 | 91 | 232 | 7.0 | 13.9 | 0.00 | 0.00 | 0.00 | 10 | 1010.5 |
| 20260503225029 | 92 | 260 | 3.5 | 15.6 | 0.00 | 0.00 | 0.00 | 11 | 1010.6 |
| 20260503224525 | 91 | 209 | 7.8 | 15.6 | 0.00 | 0.00 | 0.00 | 11 | 1010.9 |
| 20260503224021 | 91 | 164 | 7.0 | 13.0 | 0.00 | 0.00 | 0.00 | 12 | 1010.9 |
| 20260503223520 | 91 | 196 | 6.1 | 13.0 | 0.00 | 0.00 | 0.00 | 12 | 1010.9 |
| 20260503223016 | 91 | 180 | 2.6 | 12.2 | 0.00 | 0.00 | 0.00 | 12 | 1010.8 |
| 20260503222532 | 92 | 233 | 7.0 | 14.8 | 0.00 | 0.00 | 0.00 | 12 | 1011.2 |
| 20260503222027 | 92 | 224 | 5.2 | 14.8 | 0.00 | 0.00 | 0.00 | 13 | 1011.2 |
| 20260503221523 | 92 | 223 | 5.2 | 14.8 | 0.00 | 0.00 | 0.00 | 11 | 1011.2 |
| 20260503221019 | 91 | 210 | 7.0 | 14.8 | 0.00 | 0.00 | 0.00 | 12 | 1011.0 |
| 20260503220032 | 92 | 225 | 7.0 | 17.4 | 0.00 | 0.00 | 0.00 | 12 | 1010.9 |
| 20260503215513 | 91 | 90 | 3.5 | 8.7 | 0.00 | 0.00 | 0.00 | 14 | 1010.8 |
| 20260503215029 | 91 | 155 | 2.6 | 5.2 | 0.00 | 0.00 | 0.00 | 13 | 1010.9 |
| 20260503214525 | 89 | 159 | 0.9 | 7.8 | 0.00 | 0.00 | 0.00 | 14 | 1011.1 |
| 20260503214020 | 90 | 83 | 2.6 | 7.8 | 0.00 | 0.00 | 0.00 | 14 | 1011.2 |
| 20260503213516 | 90 | 115 | 3.5 | 9.6 | 0.00 | 0.00 | 0.00 | 14 | 1011.4 |
| 20260503212527 | 91 | 120 | 8.7 | 14.8 | 0.00 | 0.00 | 0.00 | 14 | 1011.8 |
| 20260503212026 | 90 | 116 | 5.2 | 13.9 | 0.00 | 0.00 | 0.00 | 15 | 1011.6 |
| 20260503211522 | 89 | 118 | 7.0 | 13.9 | 0.00 | 0.00 | 0.00 | 16 | 1011.8 |
| 20260503211018 | 89 | 144 | 5.2 | 11.3 | 0.00 | 0.00 | 0.00 | 17 | 1011.9 |
| 20260503210514 | 88 | 75 | 3.5 | 11.3 | 0.00 | 0.00 | 0.00 | 20 | 1012.1 |
| 20260503210041 | 88 | 104 | 4.3 | 9.6 | 0.00 | 0.00 | 0.00 | 20 | 1012.2 |
| 20260503205522 | 88 | 108 | 3.5 | 13.9 | 0.00 | 0.00 | 0.00 | 20 | 1012.4 |
| 20260503205018 | 87 | 145 | 4.3 | 13.9 | 0.00 | 0.00 | 0.00 | 21 | 1012.3 |
| 20260503204518 | 87 | 127 | 4.3 | 11.3 | 0.00 | 0.00 | 0.00 | 21 | 1012.3 |
| 20260503204015 | 87 | 130 | 5.2 | 8.7 | 0.00 | 0.00 | 0.00 | 21 | 1012.4 |
| 20260503203531 | 87 | 140 | 3.5 | 9.6 | 0.00 | 0.00 | 0.00 | 21 | 1012.4 |
| 20260503203026 | 86 | 129 | 4.3 | 9.6 | 0.00 | 0.00 | 0.00 | 22 | 1012.4 |
| 20260503202522 | 86 | 112 | 2.6 | 7.0 | 0.00 | 0.00 | 0.00 | 22 | 1012.5 |
| 20260503202018 | 86 | 154 | 2.6 | 7.8 | 0.00 | 0.00 | 0.00 | 22 | 1012.7 |
| 20260503201514 | 85 | 169 | 0.9 | 7.8 | 0.00 | 0.00 | 0.00 | 23 | 1012.6 |
| 20260503201014 | 84 | 131 | 2.6 | 12.2 | 0.00 | 0.00 | 0.00 | 24 | 1012.8 |
| 20260503200528 | 85 | 98 | 7.0 | 13.0 | 0.00 | 0.00 | 0.00 | 24 | 1012.8 |
| 20260503200036 | 86 | 96 | 7.8 | 13.0 | 0.00 | 0.00 | 0.00 | 21 | 1012.9 |
| 20260503195518 | 86 | 129 | 3.5 | 7.0 | 0.00 | 0.00 | 0.00 | 22 | 1013.0 |
| 20260503195013 | 85 | 220 | 0.9 | 7.8 | 0.00 | 0.00 | 0.00 | 22 | 1013.0 |
| 20260503194530 | 86 | 137 | 1.7 | 10.4 | 0.00 | 0.00 | 0.00 | 22 | 1013.2 |
| 20260503194026 | 85 | 119 | 2.6 | 10.4 | 0.00 | 0.00 | 0.00 | 25 | 1013.2 |
| 20260503193525 | 84 | 159 | 4.3 | 10.4 | 0.00 | 0.00 | 0.00 | 25 | 1013.3 |
| 20260503193021 | 85 | 98 | 3.5 | 10.4 | 0.00 | 0.00 | 0.00 | 26 | 1013.4 |
| 20260503192517 | 85 | 159 | 0.9 | 9.6 | 0.00 | 0.00 | 0.00 | 26 | 1013.5 |
| 20260503192012 | 84 | 137 | 4.3 | 9.6 | 0.00 | 0.00 | 0.00 | 26 | 1013.8 |
| 20260503191528 | 84 | 100 | 3.5 | 9.6 | 0.00 | 0.00 | 0.00 | 27 | 1013.7 |
| 20260503191024 | 84 | 134 | 3.5 | 9.6 | 0.00 | 0.00 | 0.00 | 27 | 1013.8 |
| 20260503190519 | 84 | 126 | 2.6 | 9.6 | 0.00 | 0.00 | 0.00 | 27 | 1013.9 |
| 20260503190030 | 84 | 112 | 3.5 | 12.2 | 0.00 | 0.00 | 0.00 | 28 | 1013.8 |
| 20260503185531 | 83 | 129 | 2.6 | 12.2 | 0.00 | 0.00 | 0.00 | 28 | 1013.8 |
| 20260503185027 | 83 | 124 | 6.1 | 12.2 | 0.00 | 0.00 | 0.00 | 28 | 1013.8 |
| 20260503184523 | 83 | 120 | 7.0 | 12.2 | 0.00 | 0.00 | 0.00 | 28 | 1014.0 |
| 20260503184019 | 82 | 129 | 6.1 | 9.6 | 0.00 | 0.00 | 0.00 | 29 | 1014.3 |
| 20260503183515 | 82 | 125 | 2.6 | 11.3 | 0.00 | 0.00 | 0.00 | 29 | 1014.3 |
| 20260503183032 | 82 | 106 | 7.0 | 11.3 | 0.00 | 0.00 | 0.00 | 29 | 1014.4 |
| 20260503182513 | 82 | 122 | 4.3 | 10.4 | 0.00 | 0.00 | 0.00 | 30 | 1014.4 |
| 20260503182030 | 82 | 82 | 5.2 | 11.3 | 0.00 | 0.00 | 0.00 | 30 | 1014.6 |
| 20260503181526 | 81 | 129 | 7.8 | 11.3 | 0.00 | 0.00 | 0.00 | 30 | 1014.7 |